Flag for Netherlands Weather past 2 weeks in Kralendijk, Bonaire, Netherlands

Now
86 °F

Passing clouds.


Feels Like: 93 °F
Forecast: 80 / 86 °F
Wind: 20 mph from East

Location: Flamingo Airport - Bonaire

Current Time: Mar 27, 2015 at 3:56:10 PM

Latest Report: Mar 27, 2015 at 3:00 PM


Visibility: N/A

Pressure: 29.92 "Hg

Humidity: 66%

Dew point: 73 °F

Location of KralendijkLocation

Historic Weather in Kralendijk — Graph

°F

Kralendijk temperature yesterday

Maximum temperature yesterday: 86 °F (at 12:00 PM)
Minimum temperature yesterday: 79 °F (at 12:00 AM)
Average temperature yesterday: 82 °F

Past Weeks' High & Low Weather Summary

 TemperatureHumidityPressure
High88 °F (Mar 20, 12:00 PM)88% (Mar 22, 3:00 AM)30.04 "Hg (Mar 22, 3:00 AM)
Low70 °F (Mar 22, 6:00 AM)55% (Mar 21, 3:00 PM)29.83 "Hg (Mar 18, 6:00 PM)
Average81 °F72%29.93 "Hg
* Reported Mar 12 2:00 PM — Mar 27 2:00 PM, Kralendijk, Weather by CustomWeather, © 2015

Note: Actual official high and low records may vary slightly from our data, if they occured in-between our weather recording intervals... More about our weather records

Advertising

Kralendijk weather history for previous 24 hours

 ConditionsComfort  
Time TempWeatherWind HumidityBarometerVisibility
2:00 PM
Fri, Mar 27
86 °FWarm.21 mph66%29.95 "HgN/A
1:00 PM86 °FScattered clouds.23 mph66%29.98 "HgN/A
12:00 PM86 °FWarm.21 mph66%30.01 "HgN/A
11:00 AM86 °FWarm.22 mph66%30.01 "HgN/A
10:00 AM84 °FScattered clouds.20 mph74%30.01 "HgN/A
9:00 AM82 °FWarm.21 mph79%29.98 "HgN/A
8:00 AM81 °FWarm.17 mph84%29.98 "HgN/A
7:00 AM79 °FWarm.14 mph84%29.95 "HgN/A
6:00 AM79 °FWarm.17 mph84%29.95 "HgN/A
5:00 AM79 °FWarm.15 mph84%29.92 "HgN/A
4:00 AM79 °FWarm.17 mph84%29.92 "HgN/A
3:00 AM79 °FWarm.18 mph84%29.92 "HgN/A
2:00 AM79 °FWarm.16 mph84%29.92 "HgN/A
1:00 AM81 °FWarm.20 mph79%29.95 "HgN/A
12:00 AM81 °FWarm.20 mph79%29.95 "HgN/A
11:00 PM
Thu, Mar 26
81 °FWarm.17 mph79%29.95 "HgN/A
10:00 PM81 °FPassing clouds.17 mph79%29.95 "HgN/A
9:00 PMN/A17 mphN/AN/AN/A
8:00 PM81 °FPassing clouds.17 mph74%29.92 "HgN/A
6:00 PM82 °FScattered clouds.18 mph70%29.89 "HgN/A
5:00 PM84 °FPassing clouds.21 mph66%29.89 "HgN/A
4:00 PM86 °FPassing clouds.21 mph62%29.89 "HgN/A
Weather by CustomWeather, © 2015

See weather overviewHow to use our weather pages